Belmar-Farmingdale, NJ

4:25 AM EST on December 07, 2019 (GMT -0500)
Allaire

Weather History for KBLM - November, 2019

Change the Weather History Date:

Monday, November 11, 2019

  Actual Average Record
Temperature  
Mean Temperature 50 °F -  
Max Temperature 64 °F 51 °F 66 °F (2002)
Min Temperature 37 °F 36 °F 21 °F (2017)
Degree Days  
Heating Degree Days 14    
Moisture  
Dew Point 44 °F    
Average Humidity 74    
Maximum Humidity 94    
Minimum Humidity 45    
Precipitation  
Precipitation 0.00 in - - ()
Sea Level Pressure  
Sea Level Pressure 30.00 in    
Wind  
Wind Speed 4 mph ()    
Max Wind Speed 12 mph    
Max Gust Speed 18 mph    
Visibility 10.0 miles    
Events      
Averages and records for this station are not official NWS values.
T = Trace of Precipitation, MM = Missing Value Source: Averaged Metar Reports

Daily Weather History Graph

Daily Weather History Graph

Search for Another Location

Airport or City:

Astronomy

Nov. 11, 2019 Rise Set
Actual Time 6:37 AM EST 4:43 PM EST
Civil Twilight 6:08 AM EST 5:12 PM EST
Nautical Twilight 5:35 AM EST 5:44 PM EST
Astronomical Twilight 5:03 AM EST 6:16 PM EST
Moon 4:37 PM EST (11/11) 5:25 AM EST (11/11)
Length of Visible Light 11h 03m
Length of Day
10h 06m
Waxing Gibbous, 99% of the Moon is Illuminated
Nov 11
Waxing Gibbous
Nov 12
Full
Nov 19
Last Quarter
Nov 26
New
Dec 4
First Quarter

Hourly Weather History & Observations

Time (EST) Temp. Windchill Dew Point Humidity Pressure Visibility Wind Dir Wind Speed Gust Speed Precip Events Conditions
12:56 AM 46.0 °F 43.1 °F 35.1 °F 66% 30.09 in 10.0 mi SSW 5.8 mph - N/A   Clear
1:56 AM 45.0 °F - 36.0 °F 71% 30.09 in 10.0 mi Calm Calm - N/A   Mostly Cloudy
2:56 AM 41.0 °F - 35.1 °F 79% 30.08 in 10.0 mi Calm Calm - N/A   Partly Cloudy
3:56 AM 41.0 °F - 36.0 °F 82% 30.07 in 10.0 mi Calm Calm - N/A   Clear
4:56 AM 37.0 °F - 34.0 °F 89% 30.09 in 10.0 mi Calm Calm - N/A   Clear
5:56 AM 39.9 °F 36.7 °F 36.0 °F 86% 30.09 in 10.0 mi SW 4.6 mph - N/A   Clear
6:56 AM 45.0 °F 41.8 °F 42.1 °F 90% 30.09 in 10.0 mi SW 5.8 mph - N/A   Clear
8:56 AM 51.1 °F - 43.0 °F 74% 30.11 in 10.0 mi WSW 6.9 mph - N/A   Clear
9:56 AM 57.0 °F - 43.0 °F 59% 30.09 in 10.0 mi SW 4.6 mph - N/A   Clear
10:56 AM 60.1 °F - 43.0 °F 53% 30.08 in 10.0 mi Variable 4.6 mph - N/A   Clear
11:56 AM 62.1 °F - 42.1 °F 48% 30.05 in 10.0 mi Variable 5.8 mph - N/A   Clear
12:56 PM 64.0 °F - 42.1 °F 45% 30.03 in 10.0 mi SSW 6.9 mph - N/A   Clear
1:56 PM 64.0 °F - 44.1 °F 48% 30.01 in 10.0 mi SSE 5.8 mph - N/A   Clear
2:56 PM 62.1 °F - 45.0 °F 53% 30.00 in 10.0 mi SSE 8.1 mph - N/A   Clear
3:56 PM 59.0 °F - 46.0 °F 62% 29.99 in 10.0 mi SSE 6.9 mph - N/A   Clear
4:56 PM 55.0 °F - 46.9 °F 74% 29.98 in 10.0 mi SE 5.8 mph - N/A   Clear
5:56 PM 54.0 °F - 46.0 °F 75% 29.96 in 10.0 mi SSE 8.1 mph - N/A   Clear
6:56 PM 54.0 °F - 51.1 °F 90% 29.92 in 10.0 mi SSE 10.4 mph 18.4 mph N/A   Clear
7:56 PM 55.0 °F - 53.1 °F 93% 29.90 in 10.0 mi South 8.1 mph - N/A   Clear
8:06 PM 55.4 °F - 53.6 °F 94% 29.89 in 10.0 mi South 9.2 mph - N/A   Partly Cloudy
8:56 PM 55.9 °F - 52.0 °F 87% 29.90 in 10.0 mi SSW 10.4 mph 16.1 mph N/A   Clear
9:56 PM 55.0 °F - 51.1 °F 86% 29.88 in 10.0 mi SSW 9.2 mph - N/A   Clear
10:56 PM 55.0 °F - 51.1 °F 86% 29.85 in 10.0 mi South 8.1 mph - N/A   Clear
11:56 PM 55.0 °F - 48.0 °F 77% 29.82 in 10.0 mi South 11.5 mph - N/A   Clear